Regional Weather Roundup
Issued by NWS

Home | Current Version | Previous Version | Text Only | Print | Product List | Glossary On
Versions: 1 2 3 4 5 6 7 8 9 10 11 12 13 14 15 16 17 18 19 20 21 22 23 24 25 26 27 28 29 30 31 32 33 34 35 36 37 38 39 40 41 42 43 44 45 46 47 48 49 50
000
ASUS44 KJAN 311910
RWRMS

MISSISSIPPI HOURLY WEATHER ROUNDUP
NATIONAL WEATHER SERVICE JACKSON MS
200 PM CDT FRI JUL 31 2015

NOTE: "FAIR: INDICATES FEW OR NO CLOUDS BELOW 12,000 FEET WITH NO
SIGNIFICANT WEATHER AND/OR OBSTRUCTIONS TO VISIBILITY.

MSZ001>002-007>008-010>013-018>021-025>028-034>036-312000-
NORTHWEST MISSISSIPPI

CITY           SKY/WX    TMP DP  RH WIND       PRES   REMARKS
CLARKSDALE     FAIR      90  66  45 N9G17     30.07F HX  92
CLEVELAND      FAIR      91  66  43 NE10G17   30.05F HX  93
GREENWOOD      SUNNY     91  61  36 NE12      30.03F HX  91
GREENVILLE     SUNNY     90  66  45 NE14      30.05F HX  92
OLIVE BRANCH   MOSUNNY   90  64  43 NE10      30.07F HX  91
OXFORD         FAIR      88  64  45 NE12G18   30.08F
TUNICA         CLEAR     90  64  43 NE3       30.07F HX  91
$$

MSZ003>006-009-014>017-022>024-029>033-037>039-312000-
NORTHEAST MISSISSIPPI

CITY           SKY/WX    TMP DP  RH WIND       PRES   REMARKS
COLUMBUS AFB   SUNNY     91  60  35 N16       30.01F HX  91
CORINTH        FAIR      88  64  45 NE9G16    30.05F
GOLDN TRIANGLE SUNNY     93  61  33 NE14G21   30.01F HX  93
STARKVILLE     FAIR      88  63  42 N9G16     30.02F
TUPELO         SUNNY     90  61  37 NE15G28   30.04F HX  90
$$

MSZ040-058-312000-
CENTRAL MISSISSIPPI

CITY           SKY/WX    TMP DP  RH WIND       PRES   REMARKS
JACKSON INTL   SUNNY     93  55  27 N14G23    30.01F HX  91
JACKSON HAWKNS SUNNY     92  56  29 NE10      30.02F HX  90
MERIDIAN KEY   SUNNY     91  61  36 N12G24    29.99F HX  91
MERIDIAN NAS   MOSUNNY   90  58  33 N10G16    29.99F
VICKSBURG      SUNNY     93  60  33 NE10      30.03F HX  93
$$

MSZ059>079-312000-
SOUTH MISSISSIPPI

CITY           SKY/WX    TMP DP  RH WIND       PRES   REMARKS
BROOKHAVEN     FAIR      90  66  45 N7        30.02F HX  92
HATTIESBURG    SUNNY     91  71  51 N10G17    29.96F HX  97
MCCOMB         SUNNY     91  68  46 N9        29.98F HX  95
NATCHEZ        SUNNY     88  70  55 N10       30.02F HX  92
PINE BELT      SUNNY     91  59  33 N8G16     29.99F HX  90
$$

MSZ080>082-312000-
COASTAL MISSISSIPPI

CITY           SKY/WX    TMP DP  RH WIND       PRES   REMARKS
BAY ST LOUIS   MOSUNNY   91  72  52 N6        29.92F HX  98
BILOXI         SUNNY     91  78  64 N8        29.91F HX 105
PASCAGOULA     MOSUNNY   92  77  61 VRB6      29.91F HX 105
GULFPORT       MOSUNNY   92  75  57 NE7       29.91F HX 103
$$



USA.gov is the U.S. government's official web portal to all federal, state and local government web resources and services.